Plattsburgh, NY

11:38 AM EST on November 12, 2019 (GMT -0500)
Plattsburgh International

Weather History for KPBG - October, 2019

Change the Weather History Date:

Sunday, October 20, 2019

  Actual Average Record
Temperature  
Mean Temperature 41 °F 46 °F  
Max Temperature 53 °F 56 °F 75 °F (1963)
Min Temperature 29 °F 36 °F 17 °F (1972)
Degree Days  
Heating Degree Days 24 19  
Month to date heating degree days 311 315  
Since 1 July heating degree days 503 550  
Cooling Degree Days 0 0  
Month to date cooling degree days 0 0  
Year to date cooling degree days 406 345  
Moisture  
Dew Point 36 °F    
Average Humidity 90    
Maximum Humidity 100    
Minimum Humidity 69    
Precipitation  
Precipitation T in - 1.10 in (1989)
Month to date precipitation 3.07 0.00  
Year to date precipitation 24.69  
Sea Level Pressure  
Sea Level Pressure 30.02 in    
Wind  
Wind Speed 1 mph ()    
Max Wind Speed 13 mph    
Max Gust Speed 15 mph    
Visibility 8.7 miles    
Events Rain    
T = Trace of Precipitation, MM = Missing Value Source: Averaged Metar Reports

Daily Weather History Graph

Daily Weather History Graph

Search for Another Location

Airport or City:

Astronomy

Oct. 20, 2019 Rise Set
Actual Time 7:15 AM EDT 6:01 PM EDT
Civil Twilight 6:45 AM EDT 6:30 PM EDT
Nautical Twilight 6:11 AM EDT 7:04 PM EDT
Astronomical Twilight 5:37 AM EDT 7:38 PM EDT
Moon 10:57 PM EDT (10/20) 1:51 PM EDT (10/20)
Length of Visible Light 11h 45m
Length of Day
10h 46m
Waning Gibbous, 59% of the Moon is Illuminated
Oct 20
Waning Gibbous
Oct 21
Last Quarter
Oct 27
New
Nov 4
First Quarter
Nov 12
Full

Hourly Weather History & Observations

Time (EDT) Temp. Windchill Dew Point Humidity Pressure Visibility Wind Dir Wind Speed Gust Speed Precip Events Conditions
12:53 AM 34.0 °F - 32.0 °F 92% 30.06 in 10.0 mi Calm Calm - N/A   Clear
1:53 AM 32.0 °F - 30.0 °F 92% 30.05 in 10.0 mi Calm Calm - N/A   Clear
2:53 AM 30.0 °F - 28.9 °F 96% 30.05 in 10.0 mi Calm Calm - N/A   Clear
3:53 AM 32.0 °F - 30.0 °F 92% 30.05 in 10.0 mi Calm Calm - N/A   Clear
4:53 AM 32.0 °F - 30.0 °F 92% 30.04 in 10.0 mi Calm Calm - N/A   Clear
5:16 AM 32.0 °F - 30.9 °F 96% 30.03 in 10.0 mi Calm Calm - N/A   Scattered Clouds
5:24 AM 33.1 °F - 30.9 °F 92% 30.03 in 10.0 mi Calm Calm - N/A   Mostly Cloudy
5:53 AM 33.1 °F - 32.0 °F 96% 30.04 in 10.0 mi Calm Calm - N/A   Mostly Cloudy
6:04 AM 33.1 °F - 30.9 °F 92% 30.02 in 10.0 mi Calm Calm - N/A   Scattered Clouds
6:53 AM 32.0 °F - 30.0 °F 92% 30.03 in 10.0 mi Calm Calm - N/A   Partly Cloudy
7:12 AM 32.0 °F - 30.0 °F 92% 30.02 in 10.0 mi Calm Calm - N/A   Mostly Cloudy
7:19 AM 30.9 °F - 30.0 °F 96% 30.02 in 10.0 mi Calm Calm - N/A   Scattered Clouds
7:53 AM 32.0 °F - 30.0 °F 92% 30.04 in 10.0 mi Calm Calm - N/A   Mostly Cloudy
8:53 AM 36.0 °F - 34.0 °F 93% 30.04 in 10.0 mi Calm Calm - N/A   Overcast
9:53 AM 41.0 °F 39.0 °F 37.0 °F 86% 30.04 in 10.0 mi South 3.5 mph - N/A   Mostly Cloudy
10:53 AM 46.9 °F - 41.0 °F 80% 30.04 in 10.0 mi SSE 4.6 mph - N/A   Mostly Cloudy
11:02 AM 46.0 °F 42.5 °F 41.0 °F 83% 30.03 in 10.0 mi SE 6.9 mph - N/A   Partly Cloudy
11:53 AM 46.9 °F - 41.0 °F 80% 30.03 in 10.0 mi SSE 6.9 mph - N/A   Clear
12:53 PM 48.0 °F - 42.1 °F 80% 30.01 in 10.0 mi South 4.6 mph - N/A   Clear
1:53 PM 51.1 °F - 42.1 °F 71% 30.00 in 10.0 mi Calm Calm - N/A   Clear
2:53 PM 52.0 °F - 42.1 °F 69% 29.99 in 10.0 mi Calm Calm - N/A   Overcast
3:53 PM 51.1 °F - 46.0 °F 83% 29.99 in 10.0 mi Calm Calm - 0.00 in Rain Light Rain
4:53 PM 52.0 °F - 45.0 °F 77% 29.99 in 10.0 mi SSW 4.6 mph - 0.00 in   Clear
5:53 PM 51.1 °F - 44.1 °F 77% 29.99 in 10.0 mi South 3.5 mph - N/A   Mostly Cloudy
6:53 PM 48.0 °F - 45.0 °F 89% 29.99 in 10.0 mi Calm Calm - N/A   Overcast
7:53 PM 45.0 °F - 43.0 °F 93% 30.00 in 10.0 mi Calm Calm - N/A   Clear
8:53 PM 41.0 °F - 39.9 °F 96% 30.01 in 9.0 mi Calm Calm - N/A   Clear
9:53 PM 39.9 °F - 39.0 °F 97% 30.02 in 8.0 mi Calm Calm - N/A   Clear
10:21 PM 39.0 °F - 37.9 °F 96% 30.02 in 2.0 mi Calm Calm - N/A   Clear
10:29 PM 39.0 °F - 37.0 °F 93% 30.02 in 4.0 mi Calm Calm - N/A   Clear
10:53 PM 37.9 °F - 37.0 °F 97% 30.03 in 3.0 mi Calm Calm - N/A   Clear
11:33 PM 37.9 °F - 37.0 °F 97% 30.02 in 1.8 mi Calm Calm - N/A   Clear
11:40 PM 37.9 °F - 37.0 °F 97% 30.02 in 2.0 mi Calm Calm - N/A   Partly Cloudy
11:50 PM 37.4 °F - 37.4 °F 100% 30.03 in 8.0 mi Calm Calm - N/A   Partly Cloudy
11:53 PM 37.0 °F - 36.0 °F 96% 30.04 in 8.0 mi Calm Calm - N/A   Partly Cloudy